Regional Weather Roundup
Issued by NWS Northern Indiana

Home | Current Version | Previous Version | Text Only | Print | Product List | Glossary On
Versions: 1 2 3 4 5 6 7 8 9 10 11 12 13 14 15 16 17 18 19 20 21 22 23 24 25 26 27 28 29 30 31 32 33 34 35 36 37 38 39 40 41 42 43 44 45 46 47 48 49 50
000
ASUS43 KIWX 291010
RWRIWX

KIWX WEATHER ROUNDUP
NATIONAL WEATHER SERVICE NORTHERN INDIANA
600 AM EDT WED JUL 29 2015

NOTE: "FAIR" INDICATES FEW OR NO CLOUDS BELOW 12,000 FEET WITH NO
SIGNIFICANT WEATHER AND/OR OBSTRUCTIONS TO VISIBILITY.

* THESE STATIONS ARE NOT UNDER NWS QUALITY CONTROL. THEY ALSO MAY NOT
  REPORT WEATHER SUCH AS PRECIPITATION OR FOG.

INZ001>027-291100-
NORTHERN INDIANA

CITY           SKY/WX    TMP DP  RH WIND       PRES   REMARKS
GARY*          MOCLDY    77  75  94 W10       29.93F
VALPARAISO     LGT RAIN  76  74  93 W3        29.94F
MICHIGAN CITY* CLOUDY    75  73  94 S6        29.94S
LAPORTE*       CLOUDY    76  76 100 SW3       29.96R FOG
KNOX*          CLOUDY    73  73 100 SW3       29.94R
SOUTH BEND     CLOUDY    75  71  87 SW3       29.94F
GOSHEN         CLOUDY    73  68  84 SE5       29.95S
MONTICELLO*    CLOUDY    75  75 100 W5        29.95R
LOGANSPORT*    MOCLDY    72  68  88 S3        29.96S FOG
ROCHESTER*     CLOUDY    79  77  94 S5        29.95F
WARSAW*        MOCLDY    72  70  94 CALM      29.95F
ANGOLA*        CLEAR     70  63  78 CALM      29.97S
FORT WAYNE     MOCLDY    72  70  93 S3        29.97R
HUNTINGTON*    PTCLDY    74  72  94 CALM      29.96S
PERU/GRISSOM   PTCLDY    73  72  95 S3        29.95S
MARION*        PTCLDY    70  70  99 CALM      29.97F FOG

$$
INZ028>050-291100-
CENTRAL INDIANA

CITY           SKY/WX    TMP DP  RH WIND       PRES   REMARKS
LAFAYETTE      MOCLDY    74  73  97 W6        29.95S FOG
KOKOMO*        MOCLDY    72  70  94 S5        29.96F
MUNCIE*        CLEAR     71  69  93 CALM      29.98R FOG
INDIANAPOLIS   CLOUDY    75  72  90 S5        29.96S

$$
MIZ043>046-050>051-056>058-064>065-071>073-077>080-291100-
SOUTHWEST LOWER MICHIGAN

CITY           SKY/WX    TMP DP  RH WIND       PRES   REMARKS
BATTLE CREEK   MOCLDY    73  63  70 S5        29.96R
BENTON HARBOR  CLOUDY    75  70  84 S3        29.92S
COLDWATER*     PTCLDY    70  63  76 CALM      29.96S
HILLSDALE*     CLEAR     70  66  86 S3        29.98R
HOLLAND        MOCLDY    74  67  78 S3        29.93S
GRAND RAPIDS   CLOUDY    73  64  73 S6        29.93S
KALAMAZOO      MOCLDY    73  64  73 S5        29.95S
STURGIS*       MOCLDY    72  66  83 SE3       29.95S
THREE RIVERS*  FAIR      70  66  87 CALM      29.95S

$$
OHZ001>008-015>018-024>025-291100-
NORTHWEST OHIO

CITY           SKY/WX    TMP DP  RH WIND       PRES   REMARKS
WAUSEON*       FAIR      66  66 100 CALM      29.96S
DEFIANCE       CLEAR     70  65  84 CALM      29.97R
FINDLAY        CLEAR     70  66  87 CALM      29.96S
TOLEDO EXPRESS PTCLDY    66  65  96 CALM      29.96R
TOLEDO METCALF PTCLDY    71  65  81 CALM      29.97R
LIMA           CLEAR     71  67  87 S6        29.97S

$$
AND FOR LAKE MICHIGAN COASTAL AND OPEN LAKE BUOY OBSERVATIONS

STATION/POSITION TEMP    WIND        PRES    VSBY  WAVE
                 AIR SEA DIR/SP/G                  HT/PER
                 (F)     (DEG/KT/KT) (MB)    (MI)  (FT/S)
CALUMET HARBOR    76     200/  5/  8   N/A
MICHIGAN CITY     76     220/ 10/ 11   N/A
BURNS HARBOR      75     230/  9/ 12 1014.2R
SAINT JOSEPH      78     180/  7/ 11 1013.5F
4 MI NW BRIDGMAN  76 75  250/  8/  8   N/A           1
MICHIGAN CITY     75 74  230/  8/ 10   N/A           1

$$
&&


USA.gov is the U.S. government's official web portal to all federal, state and local government web resources and services.